Regional Weather Roundup
Issued by NWS Cleveland, OH

Home | Current Version | Previous Version | Graphics & Text | Print | Product List | Glossary On
Versions: 1 2 3 4 5 6 7 8 9 10 11 12 13 14 15 16 17 18 19 20 21 22 23 24 25 26 27 28 29 30 31 32 33 34 35 36 37 38 39 40 41 42 43 44 45 46 47 48 49 50
953
ASUS41 KCLE 301212
RWRCLE
OHIO REGIONAL WEATHER ROUNDUP
NATIONAL WEATHER SERVICE WILMINGTON, OH
800 AM EDT SAT APR 30 2016

NOTE: "FAIR" INDICATES FEW OR NO CLOUDS BELOW 12,000 FEET WITH NO
SIGNIFICANT WEATHER AND/OR OBSTRUCTIONS TO VISIBILITY.

OHZ001>008-015>018-024>027-034-035-043-044-301300-
   NORTHWEST OHIO

CITY           SKY/WX    TMP DP  RH WIND       PRES   REMARKS
DEFIANCE       FAIR      45  36  70 E8        30.12R
FINDLAY        FAIR      43  36  76 E10       30.11R
TOLEDO EXPRESS FAIR      43  39  86 NE5       30.13R
TOLEDO EXEC    FAIR      44  38  79 E5        30.14S
LIMA           FAIR      43  39  86 E7        30.11R
$$

OHZ009>014-019>023-028>033-038-089-301300-
   NORTHEAST OHIO

CITY           SKY/WX    TMP DP  RH WIND       PRES   REMARKS
CLE-HOPKINS    FAIR      43  36  76 E8        30.16F
CLE-LAKEFRONT  FAIR      45  34  65 E8        30.14F
CUY CO. ARPT   PTSUNNY   41  37  87 SE12      30.16S
LORAIN-ELYRIA  FAIR      41  37  86 E6        30.15R
ASHTABULA      CLOUDY    40  39  97 E5        30.17S
AKRON-CANTON   FOG       40  38  93 E8        30.13S VSB 3/4
WOOSTER        CLOUDY    39  38  96 E10       30.14R FOG
MANSFIELD      FAIR      40  38  93 E8        30.11S
YOUNGSTOWN     CLOUDY    42  40  92 E5        30.15R FOG
$$

OHZ042-051>053-060>062-070>072-077>081-301300-
  SOUTHWEST OHIO

CITY           SKY/WX    TMP DP  RH WIND       PRES   REMARKS
CINC-COVINGTON CLOUDY    53  49  86 E12       30.01F
CINC-LUNKEN    CLOUDY    53  50  89 NE7       30.04S
HAMILTON       CLOUDY    53  45  74 E6        30.05R
DAYTON         PTSUNNY   48  43  82 E9        30.07S
WRIGHT-PAT AFB CLOUDY    49  45  86 E7        30.07S
DAYTON GENERAL CLOUDY    50  42  74 E13       30.04F
WILMINGTON     CLOUDY    49  45  86 NE7       30.06R
$$

OHZ036-037-039>041-045>050-054>059-063>069-073>076-082>088-301300-
  CENTRAL AND SOUTHEAST OHIO

CITY           SKY/WX    TMP DP  RH WIND       PRES   REMARKS
COLUMBUS       CLOUDY    45  42  89 E8        30.10R
OSU AIRPORT    CLOUDY    46  42  86 E7        30.10R
BOLTON FIELD   CLOUDY    46  45  93 E9        30.10R
RICKENBACK AFB CLOUDY    46  43  89 E8        30.10R
NEWARK         CLOUDY    48  42  80 E6        30.10S
MARION         PTSUNNY   42  39  89 SE9       30.12R FOG
LANCASTER      CLOUDY    48  43  82 E7        30.10R
ZANESVILLE     FAIR      50  43  77 NE6       30.11R
NEW PHILLY     CLOUDY    42  39  89 NE7       30.14S
$$




USA.gov is the U.S. government's official web portal to all federal, state and local government web resources and services.